"Sample Date","Sample Time","Sample Value","Units","Flow Rate","Laser Status","Micron Size 0","Counts/Channel 0","Micron Size 1","Counts/Channel 1","Micron Size 2","Counts/Channel 2","Micron Size 3","Counts/Channel 3","Micron Size 4","Counts/Channel 4","Micron Size 5","Counts/Channel 5","Micron Size 6","Counts/Channel 6","Micron Size 7","Counts/Channel 7","Micron Size 8","Counts/Channel 8","Micron Size 9","Counts/Channel 9","Micron Size 10","Counts/Channel 10","Micron Size 11","Counts/Channel 11","Micron Size 12","Counts/Channel 12","Micron Size 13","Counts/Channel 13","Micron Size 14","Counts/Channel 14","Micron Size 15","Counts/Channel 15","Micron Size 16","Counts/Channel 16","Micron Size 17","Counts/Channel 17","Micron Size 18","Counts/Channel 18","Micron Size 19","Counts/Channel 19","Micron Size 20","Counts/Channel 20","Micron Size 21","Counts/Channel 21","Micron Size 22","Counts/Channel 22","Micron Size 23","Counts/Channel 23","Micron Size 24","Counts/Channel 24","Micron Size 25","Counts/Channel 25","Micron Size 26","Counts/Channel 26","Micron Size 27","Counts/Channel 27","Micron Size 28","Counts/Channel 28","Micron Size 29","Counts/Channel 29","Micron Size 30","Counts/Channel 30","Micron Size 31","Counts/Channel 31"
"03/01/08","04:00:05",7243.000,"cc",28378.014,1,0.100,6678.000,0.200,259.000,0.300,144.000,0.500,112.000,1.000,50.000,5.000,0
"03/01/08","04:00:11",7218.000,"cc",28222.996,1,0.100,6618.000,0.200,295.000,0.300,140.000,0.500,119.000,1.000,46.000,5.000,0
"03/01/08","04:00:17",7245.000,"cc",28309.256,1,0.100,6673.000,0.200,312.000,0.300,102.000,0.500,112.000,1.000,46.000,5.000,0
"03/01/08","04:00:23",7068.000,"cc",28307.459,1,0.100,6514.000,0.200,278.000,0.300,111.000,0.500,111.000,1.000,54.000,5.000,0
"03/01/08","04:00:29",7215.000,"cc",28352.617,1,0.100,6656.000,0.200,253.000,0.300,131.000,0.500,136.000,1.000,39.000,5.000,0
"03/01/08","04:00:35",7027.000,"cc",28302.791,1,0.100,6495.000,0.200,258.000,0.300,117.000,0.500,118.000,1.000,39.000,5.000,0
"03/01/08","04:00:41",7008.000,"cc",28333.777,1,0.100,6460.000,0.200,254.000,0.300,132.000,0.500,125.000,1.000,37.000,5.000,0
"03/01/08","04:00:47",7120.000,"cc",28327.254,1,0.100,6553.000,0.200,268.000,0.300,137.000,0.500,117.000,1.000,45.000,5.000,0
"03/01/08","04:00:53",7065.000,"cc",28286.717,1,0.100,6556.000,0.200,225.000,0.300,123.000,0.500,129.000,1.000,32.000,5.000,0
"03/01/08","04:00:59",7042.000,"cc",28362.943,1,0.100,6526.000,0.200,258.000,0.300,114.000,0.500,98.000,1.000,46.000,5.000,0
"03/01/08","04:01:05",6877.000,"cc",28368.949,1,0.100,6317.000,0.200,254.000,0.300,126.000,0.500,129.000,1.000,50.000,5.000,1.000
"03/01/08","04:01:11",7047.000,"cc",28317.773,1,0.100,6469.000,0.200,257.000,0.300,150.000,0.500,121.000,1.000,50.000,5.000,0
"03/01/08","04:01:17",7030.000,"cc",28270.297,1,0.100,6481.000,0.200,274.000,0.300,130.000,0.500,107.000,1.000,38.000,5.000,0
"03/01/08","04:01:23",6861.000,"cc",28305.961,1,0.100,6336.000,0.200,265.000,0.300,108.000,0.500,111.000,1.000,41.000,5.000,0
"03/01/08","04:01:29",6997.000,"cc",28288.856,1,0.100,6399.000,0.200,285.000,0.300,135.000,0.500,122.000,1.000,56.000,5.000,0
"03/01/08","04:01:35",6936.000,"cc",28340.981,1,0.100,6405.000,0.200,274.000,0.300,106.000,0.500,114.000,1.000,37.000,5.000,0
"03/01/08","04:01:41",6796.000,"cc",28318.787,1,0.100,6207.000,0.200,299.000,0.300,138.000,0.500,104.000,1.000,48.000,5.000,0
"03/01/08","04:01:47",6689.000,"cc",28278.006,1,0.100,6168.000,0.200,258.000,0.300,107.000,0.500,115.000,1.000,41.000,5.000,0
"03/01/08","04:01:53",6897.000,"cc",28358.250,1,0.100,6351.000,0.200,274.000,0.300,119.000,0.500,110.000,1.000,43.000,5.000,0
"03/01/08","04:01:59",6906.000,"cc",28354.246,1,0.100,6379.000,0.200,258.000,0.300,111.000,0.500,112.000,1.000,46.000,5.000,0
"03/01/08","04:02:05",6658.000,"cc",28346.607,1,0.100,6176.000,0.200,204.000,0.300,111.000,0.500,124.000,1.000,43.000,5.000,0
"03/01/08","04:02:11",6853.000,"cc",28322.057,1,0.100,6282.000,0.200,250.000,0.300,137.000,0.500,145.000,1.000,39.000,5.000,0
"03/01/08","04:02:17",6915.000,"cc",28274.775,1,0.100,6328.000,0.200,291.000,0.300,127.000,0.500,124.000,1.000,45.000,5.000,0
"03/01/08","04:02:23",6778.000,"cc",28392.750,1,0.100,6197.000,0.200,284.000,0.300,129.000,0.500,110.000,1.000,58.000,5.000,0
"03/01/08","04:02:29",6867.000,"cc",28188.660,1,0.100,6298.000,0.200,257.000,0.300,130.000,0.500,123.000,1.000,59.000,5.000,0
"03/01/08","04:02:35",6845.000,"cc",28350.602,1,0.100,6261.000,0.200,256.000,0.300,137.000,0.500,147.000,1.000,43.000,5.000,1.000
"03/01/08","04:02:41",6991.000,"cc",28282.398,1,0.100,6430.000,0.200,267.000,0.300,123.000,0.500,123.000,1.000,48.000,5.000,0
"03/01/08","04:02:47",6841.000,"cc",28402.908,1,0.100,6302.000,0.200,262.000,0.300,117.000,0.500,115.000,1.000,45.000,5.000,0
"03/01/08","04:02:53",6706.000,"cc",28227.422,1,0.100,6129.000,0.200,281.000,0.300,123.000,0.500,117.000,1.000,56.000,5.000,0
"03/01/08","04:02:59",6955.000,"cc",28374.522,1,0.100,6392.000,0.200,261.000,0.300,127.000,0.500,140.000,1.000,35.000,5.000,0
"03/01/08","04:03:05",6961.000,"cc",28344.633,1,0.100,6355.000,0.200,266.000,0.300,157.000,0.500,130.000,1.000,53.000,5.000,0
"03/01/08","04:03:11",6959.000,"cc",28242.904,1,0.100,6352.000,0.200,266.000,0.300,183.000,0.500,119.000,1.000,39.000,5.000,0
"03/01/08","04:03:17",6985.000,"cc",28314.100,1,0.100,6420.000,0.200,279.000,0.300,127.000,0.500,111.000,1.000,48.000,5.000,0
"03/01/08","04:03:23",6839.000,"cc",28421.260,1,0.100,6265.000,0.200,260.000,0.300,133.000,0.500,123.000,1.000,58.000,5.000,0
"03/01/08","04:03:29",6790.000,"cc",28329.369,1,0.100,6238.000,0.200,258.000,0.300,128.000,0.500,124.000,1.000,42.000,5.000,0
"03/01/08","04:03:35",7033.000,"cc",28216.924,1,0.100,6463.000,0.200,250.000,0.300,126.000,0.500,134.000,1.000,60.000,5.000,0
"03/01/08","04:03:41",6828.000,"cc",28350.809,1,0.100,6243.000,0.200,283.000,0.300,134.000,0.500,121.000,1.000,47.000,5.000,0
"03/01/08","04:03:47",6737.000,"cc",28322.313,1,0.100,6174.000,0.200,262.000,0.300,132.000,0.500,117.000,1.000,52.000,5.000,0
"03/01/08","04:03:53",6862.000,"cc",28318.348,1,0.100,6324.000,0.200,268.000,0.300,131.000,0.500,96.000,1.000,43.000,5.000,0
"03/01/08","04:03:59",6917.000,"cc",28349.682,1,0.100,6360.000,0.200,254.000,0.300,138.000,0.500,116.000,1.000,49.000,5.000,0
"03/01/08","04:04:05",6894.000,"cc",28303.588,1,0.100,6302.000,0.200,245.000,0.300,158.000,0.500,133.000,1.000,56.000,5.000,0
"03/01/08","04:04:11",6967.000,"cc",28280.428,1,0.100,6383.000,0.200,283.000,0.300,133.000,0.500,108.000,1.000,60.000,5.000,0
"03/01/08","04:04:17",6950.000,"cc",28365.682,1,0.100,6394.000,0.200,269.000,0.300,117.000,0.500,123.000,1.000,47.000,5.000,0
"03/01/08","04:04:23",6763.000,"cc",28279.975,1,0.100,6247.000,0.200,258.000,0.300,116.000,0.500,89.000,1.000,53.000,5.000,0
"03/01/08","04:04:29",6723.000,"cc",28268.930,1,0.100,6163.000,0.200,242.000,0.300,145.000,0.500,117.000,1.000,56.000,5.000,0
"03/01/08","04:04:35",6987.000,"cc",28369.809,1,0.100,6474.000,0.200,229.000,0.300,125.000,0.500,111.000,1.000,48.000,5.000,0
"03/01/08","04:04:41",6983.000,"cc",28336.678,1,0.100,6425.000,0.200,251.000,0.300,136.000,0.500,128.000,1.000,43.000,5.000,0
"03/01/08","04:04:47",6913.000,"cc",28285.606,1,0.100,6323.000,0.200,287.000,0.300,117.000,0.500,132.000,1.000,54.000,5.000,0
"03/01/08","04:04:53",7060.000,"cc",28308.559,1,0.100,6472.000,0.200,268.000,0.300,152.000,0.500,117.000,1.000,51.000,5.000,0
"03/01/08","04:04:59",7145.000,"cc",28370.838,1,0.100,6496.000,0.200,285.000,0.300,154.000,0.500,163.000,1.000,47.000,5.000,0
"03/01/08","04:05:05",7149.000,"cc",28295.584,1,0.100,6562.000,0.200,266.000,0.300,148.000,0.500,117.000,1.000,56.000,5.000,0
"03/01/08","04:05:11",7179.000,"cc",28282.572,1,0.100,6554.000,0.200,285.000,0.300,146.000,0.500,150.000,1.000,44.000,5.000,0
"03/01/08","04:05:17",7224.000,"cc",28266.676,1,0.100,6667.000,0.200,239.000,0.300,143.000,0.500,125.000,1.000,50.000,5.000,0
"03/01/08","04:05:23",7007.000,"cc",28318.559,1,0.100,6432.000,0.200,282.000,0.300,115.000,0.500,119.000,1.000,59.000,5.000,0
"03/01/08","04:05:29",7074.000,"cc",28319.342,1,0.100,6467.000,0.200,278.000,0.300,149.000,0.500,131.000,1.000,49.000,5.000,0
"03/01/08","04:05:35",6937.000,"cc",28395.537,1,0.100,6325.000,0.200,295.000,0.300,138.000,0.500,138.000,1.000,41.000,5.000,0
"03/01/08","04:05:41",7059.000,"cc",28334.066,1,0.100,6486.000,0.200,279.000,0.300,122.000,0.500,126.000,1.000,46.000,5.000,0
"03/01/08","04:05:47",7098.000,"cc",28248.629,1,0.100,6534.000,0.200,265.000,0.300,116.000,0.500,135.000,1.000,48.000,5.000,0
"03/01/08","04:05:53",7345.000,"cc",28402.039,1,0.100,6697.000,0.200,302.000,0.300,158.000,0.500,140.000,1.000,48.000,5.000,0
"03/01/08","04:05:59",7394.000,"cc",28246.590,1,0.100,6769.000,0.200,306.000,0.300,144.000,0.500,117.000,1.000,57.000,5.000,1.000
"03/01/08","04:06:05",6980.000,"cc",28301.371,1,0.100,6413.000,0.200,263.000,0.300,127.000,0.500,137.000,1.000,40.000,5.000,0
"03/01/08","04:06:11",7152.000,"cc",28326.537,1,0.100,6504.000,0.200,282.000,0.300,146.000,0.500,161.000,1.000,59.000,5.000,0
"03/01/08","04:06:17",7226.000,"cc",28408.336,1,0.100,6588.000,0.200,329.000,0.300,137.000,0.500,114.000,1.000,58.000,5.000,0
"03/01/08","04:06:23",7044.000,"cc",28325.879,1,0.100,6464.000,0.200,261.000,0.300,154.000,0.500,120.000,1.000,45.000,5.000,0
"03/01/08","04:06:29",7167.000,"cc",28280.957,1,0.100,6602.000,0.200,265.000,0.300,149.000,0.500,115.000,1.000,36.000,5.000,0
"03/01/08","04:06:35",7151.000,"cc",28281.082,1,0.100,6556.000,0.200,286.000,0.300,128.000,0.500,127.000,1.000,54.000,5.000,0
"03/01/08","04:06:41",7223.000,"cc",28275.414,1,0.100,6657.000,0.200,252.000,0.300,119.000,0.500,141.000,1.000,53.000,5.000,1.000
"03/01/08","04:06:47",7191.000,"cc",28350.906,1,0.100,6608.000,0.200,271.000,0.300,130.000,0.500,130.000,1.000,52.000,5.000,0
"03/01/08","04:06:53",7092.000,"cc",28325.254,1,0.100,6516.000,0.200,279.000,0.300,136.000,0.500,113.000,1.000,48.000,5.000,0
"03/01/08","04:06:59",7062.000,"cc",28382.352,1,0.100,6508.000,0.200,261.000,0.300,120.000,0.500,123.000,1.000,50.000,5.000,0
"03/01/08","04:07:05",7180.000,"cc",28314.492,1,0.100,6593.000,0.200,260.000,0.300,142.000,0.500,139.000,1.000,46.000,5.000,0
"03/01/08","04:07:11",7207.000,"cc",28301.260,1,0.100,6632.000,0.200,261.000,0.300,133.000,0.500,127.000,1.000,54.000,5.000,0
"03/01/08","04:07:17",7113.000,"cc",28302.428,1,0.100,6516.000,0.200,285.000,0.300,146.000,0.500,114.000,1.000,52.000,5.000,0
"03/01/08","04:07:23",6960.000,"cc",28293.123,1,0.100,6389.000,0.200,242.000,0.300,156.000,0.500,125.000,1.000,48.000,5.000,0
"03/01/08","04:07:29",7125.000,"cc",28298.418,1,0.100,6544.000,0.200,253.000,0.300,126.000,0.500,146.000,1.000,56.000,5.000,0
"03/01/08","04:07:35",7466.000,"cc",28308.004,1,0.100,6923.000,0.200,242.000,0.300,127.000,0.500,112.000,1.000,62.000,5.000,0
"03/01/08","04:07:41",6993.000,"cc",28249.881,1,0.100,6419.000,0.200,254.000,0.300,128.000,0.500,133.000,1.000,59.000,5.000,0
"03/01/08","04:07:47",7145.000,"cc",28368.531,1,0.100,6579.000,0.200,284.000,0.300,111.000,0.500,117.000,1.000,53.000,5.000,1.000
"03/01/08","04:07:53",7256.000,"cc",28321.713,1,0.100,6664.000,0.200,274.000,0.300,123.000,0.500,142.000,1.000,53.000,5.000,0
"03/01/08","04:07:59",6968.000,"cc",28318.672,1,0.100,6391.000,0.200,293.000,0.300,125.000,0.500,115.000,1.000,44.000,5.000,0
"03/01/08","04:08:05",7066.000,"cc",28348.086,1,0.100,6470.000,0.200,294.000,0.300,127.000,0.500,128.000,1.000,47.000,5.000,0
"03/01/08","04:08:11",6890.000,"cc",28284.389,1,0.100,6283.000,0.200,270.000,0.300,136.000,0.500,161.000,1.000,40.000,5.000,0
"03/01/08","04:08:17",7025.000,"cc",28339.731,1,0.100,6476.000,0.200,253.000,0.300,144.000,0.500,93.000,1.000,59.000,5.000,0
"03/01/08","04:08:23",6837.000,"cc",28350.525,1,0.100,6283.000,0.200,249.000,0.300,124.000,0.500,124.000,1.000,57.000,5.000,0
"03/01/08","04:08:29",6927.000,"cc",28270.395,1,0.100,6351.000,0.200,309.000,0.300,110.000,0.500,108.000,1.000,49.000,5.000,0
"03/01/08","04:08:35",6985.000,"cc",28279.887,1,0.100,6433.000,0.200,238.000,0.300,130.000,0.500,129.000,1.000,55.000,5.000,0
"03/01/08","04:08:41",7003.000,"cc",28351.287,1,0.100,6359.000,0.200,289.000,0.300,160.000,0.500,128.000,1.000,67.000,5.000,0
"03/01/08","04:08:47",7057.000,"cc",28365.863,1,0.100,6482.000,0.200,257.000,0.300,129.000,0.500,136.000,1.000,53.000,5.000,0
"03/01/08","04:08:53",7007.000,"cc",28249.398,1,0.100,6403.000,0.200,293.000,0.300,120.000,0.500,140.000,1.000,51.000,5.000,0
"03/01/08","04:08:59",7029.000,"cc",28329.566,1,0.100,6468.000,0.200,264.000,0.300,136.000,0.500,119.000,1.000,42.000,5.000,0
"03/01/08","04:09:05",7202.000,"cc",28338.463,1,0.100,6588.000,0.200,286.000,0.300,130.000,0.500,147.000,1.000,51.000,5.000,0
"03/01/08","04:09:11",7214.000,"cc",28279.633,1,0.100,6633.000,0.200,281.000,0.300,121.000,0.500,129.000,1.000,50.000,5.000,0
"03/01/08","04:09:17",7362.000,"cc",28348.924,1,0.100,6698.000,0.200,302.000,0.300,153.000,0.500,147.000,1.000,62.000,5.000,0
"03/01/08","04:09:23",7280.000,"cc",28293.051,1,0.100,6676.000,0.200,282.000,0.300,128.000,0.500,131.000,1.000,63.000,5.000,0
"03/01/08","04:09:29",7208.000,"cc",28244.223,1,0.100,6625.000,0.200,265.000,0.300,149.000,0.500,117.000,1.000,52.000,5.000,0
"03/01/08","04:09:35",7343.000,"cc",28302.934,1,0.100,6745.000,0.200,267.000,0.300,145.000,0.500,127.000,1.000,59.000,5.000,0
"03/01/08","04:09:41",7401.000,"cc",28346.152,1,0.100,6789.000,0.200,259.000,0.300,144.000,0.500,152.000,1.000,57.000,5.000,0
"03/01/08","04:09:47",7593.000,"cc",28338.535,1,0.100,6917.000,0.200,327.000,0.300,149.000,0.500,147.000,1.000,53.000,5.000,0
"03/01/08","04:09:53",7459.000,"cc",28275.963,1,0.100,6809.000,0.200,308.000,0.300,157.000,0.500,125.000,1.000,60.000,5.000,0
"03/01/08","04:09:59",7338.000,"cc",28394.869,1,0.100,6740.000,0.200,294.000,0.300,120.000,0.500,127.000,1.000,57.000,5.000,0
"03/01/08","04:10:05",7269.000,"cc",28336.385,1,0.100,6644.000,0.200,291.000,0.300,142.000,0.500,135.000,1.000,57.000,5.000,0
"03/01/08","04:10:11",7336.000,"cc",28372.303,1,0.100,6725.000,0.200,284.000,0.300,146.000,0.500,140.000,1.000,40.000,5.000,1.000
"03/01/08","04:10:17",7462.000,"cc",28269.283,1,0.100,6839.000,0.200,271.000,0.300,159.000,0.500,142.000,1.000,51.000,5.000,0
"03/01/08","04:10:23",7474.000,"cc",28265.484,1,0.100,6816.000,0.200,293.000,0.300,155.000,0.500,144.000,1.000,66.000,5.000,0
"03/01/08","04:10:29",7469.000,"cc",28310.631,1,0.100,6894.000,0.200,259.000,0.300,132.000,0.500,132.000,1.000,52.000,5.000,0
"03/01/08","04:10:35",7518.000,"cc",28337.988,1,0.100,6883.000,0.200,293.000,0.300,151.000,0.500,137.000,1.000,54.000,5.000,0
"03/01/08","04:10:41",7509.000,"cc",28323.699,1,0.100,6918.000,0.200,266.000,0.300,124.000,0.500,145.000,1.000,55.000,5.000,1.000
"03/01/08","04:10:47",7551.000,"cc",28352.908,1,0.100,6940.000,0.200,289.000,0.300,146.000,0.500,128.000,1.000,48.000,5.000,0
"03/01/08","04:10:53",7680.000,"cc",28308.795,1,0.100,7051.000,0.200,308.000,0.300,131.000,0.500,144.000,1.000,46.000,5.000,0
"03/01/08","04:10:59",7918.000,"cc",28296.188,1,0.100,7238.000,0.200,297.000,0.300,154.000,0.500,167.000,1.000,61.000,5.000,1.000
"03/01/08","04:11:05",7688.000,"cc",28288.080,1,0.100,7081.000,0.200,271.000,0.300,139.000,0.500,140.000,1.000,57.000,5.000,0
"03/01/08","04:11:11",7513.000,"cc",28404.254,1,0.100,6900.000,0.200,299.000,0.300,129.000,0.500,141.000,1.000,44.000,5.000,0
"03/01/08","04:11:17",7701.000,"cc",28305.357,1,0.100,7089.000,0.200,282.000,0.300,126.000,0.500,145.000,1.000,59.000,5.000,0
"03/01/08","04:11:23",7865.000,"cc",28196.660,1,0.100,7131.000,0.200,315.000,0.300,161.000,0.500,184.000,1.000,74.000,5.000,0
"03/01/08","04:11:29",7618.000,"cc",28356.648,1,0.100,6952.000,0.200,300.000,0.300,166.000,0.500,153.000,1.000,47.000,5.000,0
"03/01/08","04:11:35",7617.000,"cc",28264.707,1,0.100,6980.000,0.200,293.000,0.300,152.000,0.500,145.000,1.000,47.000,5.000,0
"03/01/08","04:11:41",7737.000,"cc",28383.857,1,0.100,7027.000,0.200,311.000,0.300,161.000,0.500,159.000,1.000,79.000,5.000,0
"03/01/08","04:11:47",7791.000,"cc",28297.926,1,0.100,7129.000,0.200,301.000,0.300,156.000,0.500,151.000,1.000,54.000,5.000,0
"03/01/08","04:11:53",7905.000,"cc",28341.943,1,0.100,7196.000,0.200,329.000,0.300,125.000,0.500,182.000,1.000,73.000,5.000,0
"03/01/08","04:11:59",8083.000,"cc",28308.600,1,0.100,7328.000,0.200,339.000,0.300,172.000,0.500,158.000,1.000,86.000,5.000,0
"03/01/08","04:12:05",8042.000,"cc",28365.082,1,0.100,7323.000,0.200,330.000,0.300,150.000,0.500,166.000,1.000,73.000,5.000,0
"03/01/08","04:12:11",7949.000,"cc",28297.232,1,0.100,7211.000,0.200,321.000,0.300,176.000,0.500,178.000,1.000,63.000,5.000,0
"03/01/08","04:12:17",7875.000,"cc",28342.842,1,0.100,7203.000,0.200,271.000,0.300,155.000,0.500,178.000,1.000,68.000,5.000,0
"03/01/08","04:12:23",7948.000,"cc",28264.078,1,0.100,7210.000,0.200,326.000,0.300,167.000,0.500,173.000,1.000,72.000,5.000,0
"03/01/08","04:12:29",8106.000,"cc",28334.410,1,0.100,7413.000,0.200,326.000,0.300,163.000,0.500,136.000,1.000,68.000,5.000,0
"03/01/08","04:12:35",8102.000,"cc",28303.356,1,0.100,7426.000,0.200,326.000,0.300,155.000,0.500,139.000,1.000,56.000,5.000,0
"03/01/08","04:12:41",8053.000,"cc",28305.525,1,0.100,7341.000,0.200,345.000,0.300,154.000,0.500,150.000,1.000,63.000,5.000,0
"03/01/08","04:12:47",8480.000,"cc",28340.961,1,0.100,7740.000,0.200,348.000,0.300,160.000,0.500,163.000,1.000,69.000,5.000,0
"03/01/08","04:12:53",8587.000,"cc",28331.484,1,0.100,7904.000,0.200,323.000,0.300,148.000,0.500,145.000,1.000,67.000,5.000,0
"03/01/08","04:12:59",8432.000,"cc",28328.777,1,0.100,7682.000,0.200,348.000,0.300,190.000,0.500,149.000,1.000,63.000,5.000,0
"03/01/08","04:13:05",8484.000,"cc",28263.328,1,0.100,7715.000,0.200,366.000,0.300,171.000,0.500,162.000,1.000,70.000,5.000,0
"03/01/08","04:13:11",8555.000,"cc",28268.979,1,0.100,7802.000,0.200,342.000,0.300,163.000,0.500,171.000,1.000,77.000,5.000,0
"03/01/08","04:13:17",8602.000,"cc",28308.936,1,0.100,7829.000,0.200,338.000,0.300,180.000,0.500,171.000,1.000,84.000,5.000,0
"03/01/08","04:13:23",8379.000,"cc",28287.615,1,0.100,7654.000,0.200,328.000,0.300,182.000,0.500,154.000,1.000,61.000,5.000,0
"03/01/08","04:13:29",8633.000,"cc",28329.740,1,0.100,7785.000,0.200,362.000,0.300,190.000,0.500,198.000,1.000,98.000,5.000,0
"03/01/08","04:13:35",8678.000,"cc",28361.270,1,0.100,7896.000,0.200,360.000,0.300,182.000,0.500,174.000,1.000,66.000,5.000,0
"03/01/08","04:13:41",8692.000,"cc",28315.283,1,0.100,7887.000,0.200,343.000,0.300,189.000,0.500,197.000,1.000,76.000,5.000,0
"03/01/08","04:13:47",8641.000,"cc",28358.842,1,0.100,7833.000,0.200,374.000,0.300,161.000,0.500,199.000,1.000,74.000,5.000,0
"03/01/08","04:13:53",8669.000,"cc",28311.162,1,0.100,7866.000,0.200,348.000,0.300,182.000,0.500,202.000,1.000,71.000,5.000,0
"03/01/08","04:13:59",8588.000,"cc",28289.428,1,0.100,7798.000,0.200,332.000,0.300,196.000,0.500,182.000,1.000,80.000,5.000,0
"03/01/08","04:14:05",8591.000,"cc",28292.322,1,0.100,7823.000,0.200,356.000,0.300,169.000,0.500,175.000,1.000,68.000,5.000,0
"03/01/08","04:14:11",8449.000,"cc",28383.609,1,0.100,7700.000,0.200,358.000,0.300,166.000,0.500,158.000,1.000,67.000,5.000,0
"03/01/08","04:14:17",8791.000,"cc",28302.320,1,0.100,7945.000,0.200,402.000,0.300,185.000,0.500,179.000,1.000,80.000,5.000,0
"03/01/08","04:14:23",8533.000,"cc",28280.752,1,0.100,7745.000,0.200,357.000,0.300,189.000,0.500,176.000,1.000,66.000,5.000,0
"03/01/08","04:14:29",10585.000,"cc",28324.838,1,0.100,8888.000,0.200,746.000,0.300,432.000,0.500,374.000,1.000,145.000,5.000,0
"03/01/08","04:14:35",8633.000,"cc",28422.223,1,0.100,7872.000,0.200,330.000,0.300,183.000,0.500,184.000,1.000,64.000,5.000,0
"03/01/08","04:14:41",8517.000,"cc",28280.711,1,0.100,7712.000,0.200,384.000,0.300,163.000,0.500,184.000,1.000,74.000,5.000,0
"03/01/08","04:14:47",8703.000,"cc",28262.582,1,0.100,7962.000,0.200,305.000,0.300,199.000,0.500,171.000,1.000,66.000,5.000,0
"03/01/08","04:14:53",8755.000,"cc",28313.979,1,0.100,7982.000,0.200,362.000,0.300,186.000,0.500,156.000,1.000,69.000,5.000,0
"03/01/08","04:14:59",10240.000,"cc",28327.666,1,0.100,8647.000,0.200,681.000,0.300,419.000,0.500,361.000,1.000,132.000,5.000,0
"03/01/08","04:15:05",9306.000,"cc",28322.451,1,0.100,8288.000,0.200,457.000,0.300,229.000,0.500,242.000,1.000,90.000,5.000,0
"03/01/08","04:15:11",11468.000,"cc",28300.863,1,0.100,9503.000,0.200,874.000,0.300,522.000,0.500,443.000,1.000,126.000,5.000,0
"03/01/08","04:15:17",9301.000,"cc",28306.065,1,0.100,8466.000,0.200,360.000,0.300,193.000,0.500,206.000,1.000,76.000,5.000,0
"03/01/08","04:15:23",9053.000,"cc",28327.859,1,0.100,8176.000,0.200,357.000,0.300,231.000,0.500,202.000,1.000,87.000,5.000,0
"03/01/08","04:15:29",9135.000,"cc",28395.967,1,0.100,8288.000,0.200,376.000,0.300,182.000,0.500,198.000,1.000,90.000,5.000,1.000
"03/01/08","04:15:35",8981.000,"cc",28289.106,1,0.100,8145.000,0.200,356.000,0.300,172.000,0.500,212.000,1.000,96.000,5.000,0
"03/01/08","04:15:41",8972.000,"cc",28327.994,1,0.100,8094.000,0.200,416.000,0.300,177.000,0.500,198.000,1.000,87.000,5.000,0
"03/01/08","04:15:47",9258.000,"cc",28309.154,1,0.100,8312.000,0.200,436.000,0.300,187.000,0.500,234.000,1.000,89.000,5.000,0
"03/01/08","04:15:53",9011.000,"cc",28336.904,1,0.100,8214.000,0.200,351.000,0.300,179.000,0.500,184.000,1.000,83.000,5.000,0
"03/01/08","04:15:59",9179.000,"cc",28317.584,1,0.100,8374.000,0.200,360.000,0.300,192.000,0.500,185.000,1.000,68.000,5.000,0
"03/01/08","04:16:05",9331.000,"cc",28210.330,1,0.100,8482.000,0.200,403.000,0.300,191.000,0.500,179.000,1.000,76.000,5.000,0
"03/01/08","04:16:11",10595.000,"cc",28220.408,1,0.100,8995.000,0.200,728.000,0.300,407.000,0.500,331.000,1.000,134.000,5.000,0
"03/01/08","04:16:17",9657.000,"cc",28383.141,1,0.100,8536.000,0.200,473.000,0.300,276.000,0.500,261.000,1.000,111.000,5.000,0
"03/01/08","04:16:23",9335.000,"cc",28420.576,1,0.100,8464.000,0.200,383.000,0.300,201.000,0.500,193.000,1.000,94.000,5.000,0
"03/01/08","04:16:29",9515.000,"cc",28318.951,1,0.100,8591.000,0.200,411.000,0.300,218.000,0.500,208.000,1.000,87.000,5.000,0
"03/01/08","04:16:35",9237.000,"cc",28276.875,1,0.100,8386.000,0.200,376.000,0.300,194.000,0.500,204.000,1.000,77.000,5.000,0
"03/01/08","04:16:41",9396.000,"cc",28310.805,1,0.100,8472.000,0.200,400.000,0.300,220.000,0.500,212.000,1.000,92.000,5.000,0
"03/01/08","04:16:47",9314.000,"cc",28278.754,1,0.100,8430.000,0.200,392.000,0.300,211.000,0.500,196.000,1.000,85.000,5.000,0
"03/01/08","04:16:53",10633.000,"cc",28346.160,1,0.100,9110.000,0.200,669.000,0.300,370.000,0.500,378.000,1.000,106.000,5.000,0
"03/01/08","04:16:59",9522.000,"cc",28296.305,1,0.100,8655.000,0.200,392.000,0.300,178.000,0.500,215.000,1.000,82.000,5.000,0
"03/01/08","04:17:05",11468.000,"cc",28273.033,1,0.100,9491.000,0.200,872.000,0.300,511.000,0.500,429.000,1.000,165.000,5.000,0
"03/01/08","04:17:11",9973.000,"cc",28355.775,1,0.100,8856.000,0.200,482.000,0.300,270.000,0.500,253.000,1.000,112.000,5.000,0
"03/01/08","04:17:17",9402.000,"cc",28396.875,1,0.100,8513.000,0.200,389.000,0.300,192.000,0.500,210.000,1.000,98.000,5.000,0
"03/01/08","04:17:23",9655.000,"cc",28283.092,1,0.100,8741.000,0.200,421.000,0.300,189.000,0.500,210.000,1.000,94.000,5.000,0
"03/01/08","04:17:29",10824.000,"cc",28229.027,1,0.100,9144.000,0.200,764.000,0.300,404.000,0.500,365.000,1.000,147.000,5.000,0
"03/01/08","04:17:35",9837.000,"cc",28347.285,1,0.100,8620.000,0.200,515.000,0.300,303.000,0.500,301.000,1.000,98.000,5.000,0
"03/01/08","04:17:41",9518.000,"cc",28394.711,1,0.100,8590.000,0.200,441.000,0.300,185.000,0.500,204.000,1.000,98.000,5.000,0
"03/01/08","04:17:47",9614.000,"cc",28292.686,1,0.100,8636.000,0.200,435.000,0.300,221.000,0.500,233.000,1.000,89.000,5.000,0